Hourly Weather Barrancas

Today, 19 June, Saturday

Time Temperature Precipitation Wind Pressure Humidity
00:00 +26°C° 0 mm 1 mps 745 mmHg 92%
01:00 +26°C° 0 mm 1 mps 744 mmHg 93%
02:00 +26°C° 0 mm 1 mps 744 mmHg 93%
03:00 +26°C° 0 mm 1 mps 744 mmHg 93%
04:00 +25°C° 0 mm 1 mps 745 mmHg 93%
05:00 +26°C° 0 mm 1 mps 745 mmHg 89%
06:00 +27°C° 0 mm 1 mps 745 mmHg 86%
07:00 +28°C° 0 mm 1 mps 746 mmHg 82%
08:00 +30°C° 0 mm 1 mps 746 mmHg 73%
09:00 +32°C° 0 mm 1 mps 746 mmHg 64%
10:00 +34°C° 0 mm 1 mps 746 mmHg 55%
11:00 +36°C° 0 mm 2 mps 745 mmHg 51%
12:00 +38°C° 0 mm 2 mps 745 mmHg 46%
13:00 +39°C° 0 mm 2 mps 744 mmHg 42%
14:00 +38°C° 0.1 mm 3 mps 744 mmHg 45%
15:00 +37°C° 0.1 mm 3 mps 743 mmHg 48%
16:00 +37°C° 0.1 mm 3 mps 743 mmHg 50%
17:00 +34°C° 0.2 mm 3 mps 744 mmHg 61%
18:00 +31°C° 0.2 mm 2 mps 745 mmHg 72%
19:00 +28°C° 0.2 mm 2 mps 745 mmHg 83%
20:00 +27°C° 0 mm 2 mps 746 mmHg 86%
21:00 +27°C° 0 mm 2 mps 746 mmHg 89%
22:00 +26°C° 0 mm 1 mps 747 mmHg 92%
23:00 +26°C° 0 mm 1 mps 746 mmHg 93%

Tomorrow, 20 June, Sunday

Time Temperature Precipitation Wind Pressure Humidity
00:00 +26°C° 0 mm 1 mps 746 mmHg 93%
01:00 +26°C° 0 mm 1 mps 745 mmHg 93%
02:00 +26°C° 0 mm 1 mps 745 mmHg 93%
03:00 +26°C° 0 mm 1 mps 745 mmHg 93%
04:00 +26°C° 0 mm 1 mps 745 mmHg 93%
05:00 +27°C° 0 mm 1 mps 745 mmHg 89%
06:00 +28°C° 0 mm 1 mps 746 mmHg 86%
07:00 +28°C° 0 mm 1 mps 746 mmHg 83%
08:00 +31°C° 0 mm 1 mps 746 mmHg 72%
09:00 +33°C° 0 mm 1 mps 746 mmHg 61%
10:00 +35°C° 0 mm 1 mps 746 mmHg 50%
11:00 +37°C° 0 mm 2 mps 745 mmHg 46%
12:00 +38°C° 0 mm 2 mps 744 mmHg 42%
13:00 +39°C° 0 mm 2 mps 744 mmHg 38%
14:00 +38°C° 0.1 mm 2 mps 744 mmHg 43%
15:00 +36°C° 0.1 mm 2 mps 743 mmHg 48%
16:00 +35°C° 0.1 mm 3 mps 743 mmHg 53%
17:00 +32°C° 0.2 mm 2 mps 744 mmHg 63%
18:00 +30°C° 0.2 mm 2 mps 745 mmHg 72%
19:00 +28°C° 0.2 mm 1 mps 745 mmHg 81%
20:00 +28°C° 0.1 mm 1 mps 746 mmHg 82%
21:00 +27°C° 0.1 mm 1 mps 746 mmHg 84%
22:00 +27°C° 0.1 mm 1 mps 746 mmHg 86%
23:00 +27°C° 0 mm 1 mps 746 mmHg 88%

Day after tomorrow, 21 June, Monday

Time Temperature Precipitation Wind Pressure Humidity
00:00 +26°C° 0 mm 1 mps 745 mmHg 90%
01:00 +26°C° 0 mm 1 mps 745 mmHg 92%
02:00 +26°C° 0 mm 1 mps 745 mmHg 92%
03:00 +26°C° 0 mm 1 mps 745 mmHg 93%
04:00 +25°C° 0 mm 1 mps 745 mmHg 93%
05:00 +26°C° 0 mm 1 mps 745 mmHg 90%
06:00 +27°C° 0 mm 1 mps 746 mmHg 86%
07:00 +28°C° 0 mm 1 mps 746 mmHg 83%
08:00 +29°C° 0 mm 1 mps 746 mmHg 75%
09:00 +31°C° 0 mm 1 mps 746 mmHg 67%
10:00 +33°C° 0 mm 1 mps 746 mmHg 59%
11:00 +34°C° 0 mm 1 mps 746 mmHg 54%
12:00 +36°C° 0 mm 2 mps 745 mmHg 49%
13:00 +38°C° 0 mm 2 mps 744 mmHg 44%
14:00 +37°C° 0.1 mm 2 mps 744 mmHg 46%
15:00 +36°C° 0.1 mm 2 mps 743 mmHg 49%
16:00 +36°C° 0.1 mm 3 mps 743 mmHg 51%
17:00 +32°C° 0.3 mm 2 mps 744 mmHg 63%
18:00 +29°C° 0.3 mm 2 mps 744 mmHg 75%
19:00 +27°C° 0.3 mm 1 mps 745 mmHg 87%
20:00 +27°C° 0 mm 1 mps 745 mmHg 88%
21:00 +26°C° 0 mm 1 mps 746 mmHg 90%
22:00 +26°C° 0 mm 1 mps 746 mmHg 92%
23:00 +26°C° 0 mm 1 mps 746 mmHg 92%

22 June, Tuesday

Time Temperature Precipitation Wind Pressure Humidity
00:00 +26°C° 0 mm 1 mps 746 mmHg 93%
01:00 +25°C° 0 mm 1 mps 745 mmHg 93%
02:00 +26°C° 0 mm 1 mps 745 mmHg 93%
03:00 +26°C° 0 mm 1 mps 745 mmHg 94%
04:00 +26°C° 0 mm 1 mps 745 mmHg 94%
05:00 +26°C° 0 mm 1 mps 745 mmHg 91%
06:00 +27°C° 0 mm 1 mps 746 mmHg 89%
07:00 +27°C° 0 mm 1 mps 746 mmHg 87%
08:00 +29°C° 0 mm 1 mps 746 mmHg 76%
09:00 +31°C° 0 mm 1 mps 746 mmHg 66%
10:00 +34°C° 0 mm 1 mps 746 mmHg 56%
11:00 +34°C° 0.4 mm 1 mps 746 mmHg 55%
12:00 +35°C° 0.4 mm 1 mps 745 mmHg 53%
13:00 +35°C° 0.4 mm 1 mps 745 mmHg 51%
14:00 +34°C° 0.9 mm 1 mps 744 mmHg 60%
15:00 +32°C° 0.9 mm 1 mps 744 mmHg 68%
16:00 +30°C° 0.9 mm 1 mps 744 mmHg 76%
17:00 +29°C° 2.7 mm 1 mps 745 mmHg 82%
18:00 +27°C° 2.7 mm 1 mps 745 mmHg 88%
19:00 +26°C° 2.7 mm 1 mps 746 mmHg 94%
20:00 +26°C° 1.5 mm 1 mps 746 mmHg 94%
21:00 +26°C° 1.5 mm 1 mps 747 mmHg 95%
22:00 +26°C° 1.5 mm 1 mps 747 mmHg 95%
23:00 +25°C° 0.4 mm 1 mps 747 mmHg 96%

23 June, Wednesday

Time Temperature Precipitation Wind Pressure Humidity
00:00 +25°C° 0.4 mm 1 mps 746 mmHg 96%
01:00 +23°C° 0.4 mm 0 mps 746 mmHg 96%
02:00 +23°C° 0.3 mm 0 mps 746 mmHg 96%
03:00 +23°C° 0.3 mm 0 mps 746 mmHg 96%
04:00 +23°C° 0.3 mm 0 mps 746 mmHg 96%
05:00 +23°C° 0.6 mm 0 mps 746 mmHg 95%
06:00 +25°C° 0.6 mm 1 mps 747 mmHg 95%
07:00 +26°C° 0.6 mm 1 mps 747 mmHg 95%
08:00 +27°C° 0.2 mm 1 mps 747 mmHg 87%
09:00 +29°C° 0.2 mm 1 mps 747 mmHg 80%
10:00 +30°C° 0.2 mm 1 mps 747 mmHg 72%
11:00 +31°C° 0.3 mm 1 mps 747 mmHg 71%
12:00 +31°C° 0.3 mm 1 mps 746 mmHg 69%
13:00 +32°C° 0.3 mm 1 mps 746 mmHg 68%
14:00 +31°C° 1.3 mm 1 mps 745 mmHg 75%
15:00 +30°C° 1.3 mm 1 mps 745 mmHg 82%
16:00 +29°C° 1.3 mm 1 mps 745 mmHg 88%
17:00 +28°C° 0.9 mm 1 mps 745 mmHg 90%
18:00 +27°C° 0.9 mm 1 mps 746 mmHg 92%
19:00 +24°C° 0.9 mm 0 mps 746 mmHg 94%
20:00 +24°C° 0.1 mm 0 mps 746 mmHg 94%
21:00 +25°C° 0.1 mm 1 mps 747 mmHg 94%
22:00 +25°C° 0.1 mm 1 mps 747 mmHg 95%
23:00 +25°C° 0 mm 1 mps 747 mmHg 95%

24 June, Thursday

Time Temperature Precipitation Wind Pressure Humidity
00:00 +25°C° 0 mm 1 mps 746 mmHg 95%
01:00 +25°C° 0 mm 1 mps 746 mmHg 96%
02:00 +25°C° 0.7 mm 1 mps 746 mmHg 96%
03:00 +25°C° 0.7 mm 1 mps 746 mmHg 96%
04:00 +25°C° 0.7 mm 1 mps 746 mmHg 97%
05:00 +25°C° 0.9 mm 1 mps 746 mmHg 96%
06:00 +23°C° 0.9 mm 0 mps 746 mmHg 95%
07:00 +24°C° 0.9 mm 0 mps 746 mmHg 94%
08:00 +25°C° 0.7 mm 0 mps 747 mmHg 90%
09:00 +28°C° 0.7 mm 1 mps 747 mmHg 86%
10:00 +29°C° 0.7 mm 1 mps 747 mmHg 82%
11:00 +30°C° 0.1 mm 1 mps 746 mmHg 74%
12:00 +31°C° 0.1 mm 1 mps 746 mmHg 67%
13:00 +33°C° 0.1 mm 1 mps 745 mmHg 59%
14:00 +32°C° 0.6 mm 1 mps 745 mmHg 66%
15:00 +31°C° 0.6 mm 1 mps 744 mmHg 72%
16:00 +30°C° 0.6 mm 1 mps 744 mmHg 79%
17:00 +29°C° 0.6 mm 1 mps 744 mmHg 83%
18:00 +27°C° 0.6 mm 1 mps 745 mmHg 88%
19:00 +26°C° 0.6 mm 1 mps 745 mmHg 93%
20:00 +26°C° 0.4 mm 1 mps 746 mmHg 94%
21:00 +26°C° 0.4 mm 1 mps 746 mmHg 94%
22:00 +26°C° 0.4 mm 1 mps 746 mmHg 94%
23:00 +23°C° 0 mm 0 mps 746 mmHg 94%
Show more